This demonstration page uses our WeatherBlox Daily Observations layout. Learn more.

Left ArrowRight Arrow

39.92423, -83.80882

Hourly Observations for November 21, 2018

Temp ( °F °C ) Dew Point ( °F °C ) Humidity (%) Winds ( mph kmh ) Pressure ( in mb ) Visibility ( mi km ) Precip ( " mm )
12:04 am 00:04 Mostly Clear 32 undefined 27 -3 80 80 WSW 10 17 30.24 1024 10 16.0934 N/A
12:56 am 00:56 Clear 31 -0.6 27 -2.8 85 85 WSW 13 20 30.22 1023 10 16.0934 N/A
1:56 am 01:56 Clear 30 -1.1 27 -2.8 88 88 WSW 12 19 30.22 1023 10 16.0934 N/A
2:45 am 02:45 Mostly Cloudy 30 -1 27 -3 86 86 WSW 15 24 30.24 1024 10 16.0934 N/A
2:56 am 02:56 Mostly Cloudy 30 -1.1 27 -2.8 88 88 WSW 17 28 30.23 1024 10 16.0934 N/A
3:30 am 03:30 Partly Cloudy 28 -2 27 -3 93 93 WSW 14 22 30.24 1024 10 16.0934 N/A
3:56 am 03:56 Partly Cloudy 29 -1.7 26 -3.3 89 89 WSW 14 22 30.23 1024 10 16.0934 N/A
4:04 am 04:04 Mostly Cloudy 28 -2 27 -3 93 93 WSW 10 17 30.24 1024 10 16.0934 N/A
4:56 am 04:56 Cloudy 30 -1.1 27 -2.8 88 88 WSW 13 20 30.23 1024 10 16.0934 N/A
5:51 am 05:51 Partly Cloudy 28 -2 27 -3 93 93 WSW 12 19 30.3 1026 10 16.0934 N/A
5:56 am 05:56 Mostly Clear 29 -1.7 26 -3.3 89 89 WSW 12 19 30.23 1024 10 16.0934 N/A
6:56 am 06:56 Clear 28 -2.2 26 -3.3 92 92 SW 10 17 30.24 1024 9 14.48406 N/A
7:56 am 07:56 Sunny 28 -2.2 26 -3.3 92 92 WSW 13 20 30.25 1025 7 11.26538 N/A
8:56 am 08:56 Mostly Sunny 29 -1.7 27 -2.8 92 92 SW 10 17 30.27 1025 8 12.87472 N/A
9:56 am 09:56 Mostly Sunny 33 0.6 28 -2.2 82 82 WSW 13 20 30.29 1026 9 14.48406 N/A
10:49 am 10:49 Cloudy 34 1 28 -2 81 81 W 16 26 30.33 1027 10 16.0934 N/A
10:56 am 10:56 Cloudy 33 0.6 28 -2.2 82 82 W 16 26 30.3 1026 10 16.0934 N/A
11:56 am 11:56 Cloudy 34 1.1 29 -1.7 82 82 WSW 10 17 30.29 1026 10 16.0934 N/A
12:56 pm 12:56 Cloudy 36 2.2 30 -1.1 79 79 W 10 17 30.29 1026 10 16.0934 N/A
1:56 pm 13:56 Cloudy 36 2.2 30 -1.1 79 79 WNW 8 13 30.29 1026 10 16.0934 N/A
2:56 pm 14:56 Cloudy 37 2.8 31 -0.6 79 79 W 7 11 30.3 1026 10 16.0934 N/A
3:56 pm 15:56 Cloudy 37 2.8 31 -0.6 79 79 WNW 9 15 30.32 1027 10 16.0934 N/A
4:56 pm 16:56 Cloudy 36 2.2 31 -0.6 82 82 NW 7 11 30.33 1027 10 16.0934 N/A
5:56 pm 17:56 Cloudy 35 1.7 31 -0.6 85 85 N 5 7 30.35 1028 9 14.48406 N/A
6:56 pm 18:56 Cloudy 34 1.1 31 -0.6 89 89 NNW 6 9 30.38 1029 9 14.48406 N/A
7:56 pm 19:56 Cloudy 34 1.1 31 -0.6 89 89 N 3 6 30.39 1029 10 16.0934 N/A
8:48 pm 20:48 Cloudy 34 1 30 -1 87 87 NNW 5 7 30.39 1029 9 14.48406 N/A
8:56 pm 20:56 Cloudy 34 1.1 31 -0.6 89 89 NNW 6 9 30.39 1029 9 14.48406 N/A
9:03 pm 21:03 Cloudy 34 1 30 -1 87 87 NNW 7 11 30.39 1029 9 14.48406 N/A
9:42 pm 21:42 Partly Cloudy 34 1 30 -1 87 87 N 5 7 30.39 1029 8 12.87472 N/A
9:56 pm 21:56 Mostly Clear 33 0.6 31 -0.6 92 92 NNW 3 6 30.4 1029 8 12.87472 N/A
10:56 pm 22:56 Mostly Cloudy with Light Rain 33 0.6 31 -0.6 92 92 N 3 6 30.39 1029 8 12.87472 N/A
11:56 pm 23:56 Cloudy 31 -0.6 30 -1.1 96 96 NNE 3 6 30.39 1029 7 11.26538 N/A

Powered by AerisWeather